When you browse on this site, cookies collect data to enhance your experience and personalize the content and advertising you see.
Visit our Privacy Policy to learn more. By continuing to use the site, you agree to this use of cookies and data.
  • In Hungary
  • List of Countries
  • For 7 days
  • Water Temperature
  • Satellite Maps
  • Weather Map
  • News
  • Weather Widgets
  • user-avatar
    Login

    Hourly Weather Medenin

    Today, 26 April, Friday

    Time Temperature Precipitation Wind Pressure Humidity
    00:00 +21°C° 0 mm 2 mps 727 mmHg 51%
    01:00 +21°C° 0 mm 2 mps 727 mmHg 53%
    02:00 +20°C° 0 mm 2 mps 727 mmHg 54%
    03:00 +20°C° 0 mm 2 mps 726 mmHg 55%
    04:00 +19°C° 0 mm 2 mps 726 mmHg 56%
    05:00 +19°C° 0 mm 2 mps 726 mmHg 56%
    06:00 +19°C° 0 mm 2 mps 726 mmHg 56%
    07:00 +19°C° 0 mm 2 mps 727 mmHg 56%
    08:00 +21°C° 0 mm 3 mps 727 mmHg 49%
    09:00 +24°C° 0 mm 3 mps 727 mmHg 43%
    10:00 +26°C° 0 mm 3 mps 728 mmHg 36%
    11:00 +27°C° 0 mm 4 mps 728 mmHg 34%
    12:00 +28°C° 0 mm 4 mps 728 mmHg 33%
    13:00 +29°C° 0 mm 5 mps 728 mmHg 31%
    14:00 +28°C° 0 mm 6 mps 727 mmHg 35%
    15:00 +27°C° 0 mm 7 mps 727 mmHg 38%
    16:00 +26°C° 0 mm 8 mps 727 mmHg 42%
    17:00 +23°C° 0 mm 8 mps 727 mmHg 51%
    18:00 +21°C° 0 mm 8 mps 727 mmHg 60%
    19:00 +18°C° 0 mm 8 mps 727 mmHg 68%
    20:00 +17°C° 0 mm 8 mps 728 mmHg 68%
    21:00 +17°C° 0 mm 8 mps 728 mmHg 68%
    22:00 +16°C° 0 mm 8 mps 729 mmHg 68%
    23:00 +16°C° 0 mm 8 mps 729 mmHg 67%

    Tomorrow, 27 April, Saturday

    Time Temperature Precipitation Wind Pressure Humidity
    00:00 +16°C° 0 mm 8 mps 729 mmHg 67%
    01:00 +16°C° 0 mm 9 mps 730 mmHg 67%
    02:00 +16°C° 0 mm 8 mps 729 mmHg 67%
    03:00 +15°C° 0 mm 8 mps 729 mmHg 67%
    04:00 +15°C° 0 mm 7 mps 729 mmHg 67%
    05:00 +15°C° 0 mm 7 mps 729 mmHg 63%
    06:00 +15°C° 0 mm 7 mps 730 mmHg 59%
    07:00 +15°C° 0 mm 8 mps 730 mmHg 55%
    08:00 +16°C° 0 mm 8 mps 730 mmHg 49%
    09:00 +17°C° 0 mm 8 mps 731 mmHg 43%
    10:00 +18°C° 0 mm 9 mps 731 mmHg 37%
    11:00 +19°C° 0 mm 9 mps 731 mmHg 34%
    12:00 +21°C° 0 mm 9 mps 731 mmHg 31%
    13:00 +22°C° 0 mm 9 mps 731 mmHg 28%
    14:00 +22°C° 0 mm 9 mps 731 mmHg 29%
    15:00 +21°C° 0 mm 9 mps 731 mmHg 30%
    16:00 +21°C° 0 mm 9 mps 730 mmHg 31%
    17:00 +19°C° 0 mm 9 mps 730 mmHg 36%
    18:00 +18°C° 0 mm 8 mps 730 mmHg 41%
    19:00 +17°C° 0 mm 8 mps 730 mmHg 46%
    20:00 +16°C° 0 mm 8 mps 731 mmHg 49%
    21:00 +16°C° 0 mm 8 mps 731 mmHg 53%
    22:00 +15°C° 0 mm 7 mps 732 mmHg 56%
    23:00 +15°C° 0 mm 7 mps 731 mmHg 59%

    Day after tomorrow, 28 April, Sunday

    Time Temperature Precipitation Wind Pressure Humidity
    00:00 +14°C° 0 mm 6 mps 731 mmHg 62%
    01:00 +14°C° 0 mm 6 mps 731 mmHg 64%
    02:00 +14°C° 0 mm 5 mps 731 mmHg 67%
    03:00 +13°C° 0 mm 5 mps 731 mmHg 69%
    04:00 +13°C° 0 mm 4 mps 731 mmHg 71%
    05:00 +13°C° 0 mm 4 mps 731 mmHg 69%
    06:00 +13°C° 0 mm 4 mps 731 mmHg 67%
    07:00 +13°C° 0 mm 4 mps 731 mmHg 65%
    08:00 +15°C° 0 mm 5 mps 731 mmHg 56%
    09:00 +16°C° 0 mm 5 mps 732 mmHg 47%
    10:00 +19°C° 0 mm 6 mps 732 mmHg 38%
    11:00 +20°C° 0 mm 6 mps 731 mmHg 36%
    12:00 +20°C° 0 mm 6 mps 731 mmHg 33%
    13:00 +21°C° 0 mm 6 mps 731 mmHg 31%
    14:00 +21°C° 0 mm 6 mps 730 mmHg 31%
    15:00 +21°C° 0 mm 6 mps 730 mmHg 31%
    16:00 +21°C° 0 mm 6 mps 729 mmHg 31%
    17:00 +21°C° 0 mm 5 mps 729 mmHg 34%
    18:00 +20°C° 0 mm 5 mps 729 mmHg 37%
    19:00 +19°C° 0 mm 4 mps 729 mmHg 39%
    20:00 +18°C° 0 mm 4 mps 729 mmHg 43%
    21:00 +18°C° 0 mm 4 mps 730 mmHg 46%
    22:00 +17°C° 0 mm 4 mps 730 mmHg 50%
    23:00 +17°C° 0 mm 4 mps 730 mmHg 52%

    29 April, Monday

    Time Temperature Precipitation Wind Pressure Humidity
    00:00 +16°C° 0 mm 3 mps 730 mmHg 54%
    01:00 +16°C° 0 mm 3 mps 729 mmHg 55%
    02:00 +15°C° 0 mm 2 mps 729 mmHg 56%
    03:00 +15°C° 0 mm 2 mps 729 mmHg 57%
    04:00 +15°C° 0 mm 2 mps 728 mmHg 58%
    05:00 +15°C° 0 mm 2 mps 728 mmHg 56%
    06:00 +15°C° 0 mm 2 mps 729 mmHg 54%
    07:00 +16°C° 0 mm 3 mps 729 mmHg 51%
    08:00 +18°C° 0 mm 3 mps 729 mmHg 45%
    09:00 +19°C° 0 mm 3 mps 729 mmHg 38%
    10:00 +21°C° 0 mm 3 mps 730 mmHg 32%
    11:00 +22°C° 0 mm 3 mps 729 mmHg 29%
    12:00 +25°C° 0 mm 3 mps 729 mmHg 26%
    13:00 +26°C° 0 mm 3 mps 729 mmHg 23%
    14:00 +26°C° 0 mm 3 mps 728 mmHg 22%
    15:00 +27°C° 0 mm 3 mps 728 mmHg 20%
    16:00 +28°C° 0 mm 3 mps 727 mmHg 19%
    17:00 +27°C° 0 mm 4 mps 727 mmHg 21%
    18:00 +26°C° 0 mm 5 mps 727 mmHg 23%
    19:00 +24°C° 0 mm 6 mps 727 mmHg 25%
    20:00 +23°C° 0 mm 5 mps 727 mmHg 28%
    21:00 +22°C° 0 mm 5 mps 727 mmHg 31%
    22:00 +21°C° 0 mm 4 mps 728 mmHg 34%
    23:00 +20°C° 0 mm 4 mps 727 mmHg 34%

    30 April, Tuesday

    Time Temperature Precipitation Wind Pressure Humidity
    00:00 +20°C° 0 mm 3 mps 727 mmHg 35%
    01:00 +19°C° 0 mm 2 mps 727 mmHg 36%
    02:00 +19°C° 0 mm 2 mps 727 mmHg 36%
    03:00 +19°C° 0 mm 3 mps 726 mmHg 37%
    04:00 +18°C° 0 mm 3 mps 726 mmHg 37%
    05:00 +19°C° 0 mm 3 mps 726 mmHg 35%
    06:00 +20°C° 0 mm 3 mps 727 mmHg 32%
    07:00 +20°C° 0 mm 3 mps 727 mmHg 30%
    08:00 +22°C° 0 mm 3 mps 727 mmHg 25%
    09:00 +26°C° 0 mm 3 mps 727 mmHg 20%
    10:00 +28°C° 0 mm 4 mps 728 mmHg 15%
    11:00 +29°C° 0 mm 3 mps 727 mmHg 14%
    12:00 +30°C° 0 mm 3 mps 727 mmHg 14%
    13:00 +31°C° 0 mm 2 mps 727 mmHg 13%
    14:00 +31°C° 0 mm 2 mps 726 mmHg 13%
    15:00 +31°C° 0 mm 2 mps 726 mmHg 13%
    16:00 +31°C° 0 mm 3 mps 725 mmHg 14%
    17:00 +30°C° 0 mm 3 mps 725 mmHg 15%
    18:00 +29°C° 0 mm 4 mps 725 mmHg 17%
    19:00 +28°C° 0 mm 4 mps 725 mmHg 19%
    20:00 +27°C° 0 mm 4 mps 725 mmHg 23%
    21:00 +26°C° 0 mm 3 mps 725 mmHg 26%
    22:00 +24°C° 0 mm 3 mps 725 mmHg 30%
    23:00 +24°C° 0 mm 3 mps 725 mmHg 33%

    1 May, Wednesday

    Time Temperature Precipitation Wind Pressure Humidity
    00:00 +23°C° 0 mm 2 mps 724 mmHg 35%
    01:00 +21°C° 0 mm 2 mps 724 mmHg 38%
    02:00 +21°C° 0 mm 2 mps 724 mmHg 39%
    03:00 +20°C° 0 mm 2 mps 723 mmHg 40%
    04:00 +21°C° 0 mm 1 mps 723 mmHg 42%
    05:00 +20°C° 0 mm 2 mps 723 mmHg 45%
    06:00 +20°C° 0 mm 2 mps 723 mmHg 48%
    07:00 +19°C° 0 mm 2 mps 723 mmHg 51%
    08:00 +21°C° 0 mm 2 mps 724 mmHg 44%
    09:00 +24°C° 0 mm 2 mps 724 mmHg 38%
    10:00 +26°C° 0 mm 2 mps 725 mmHg 31%
    11:00 +26°C° 0 mm 3 mps 725 mmHg 32%
    12:00 +26°C° 0 mm 3 mps 724 mmHg 34%
    13:00 +27°C° 0 mm 4 mps 724 mmHg 35%
    14:00 +26°C° 0 mm 5 mps 724 mmHg 37%
    15:00 +26°C° 0 mm 6 mps 724 mmHg 39%
    16:00 +26°C° 0 mm 6 mps 723 mmHg 42%
    17:00 +23°C° 0 mm 6 mps 723 mmHg 46%
    18:00 +21°C° 0 mm 6 mps 723 mmHg 50%
    19:00 +20°C° 0 mm 6 mps 723 mmHg 54%
    20:00 +19°C° 0 mm 6 mps 724 mmHg 57%
    21:00 +17°C° 0 mm 6 mps 724 mmHg 60%
    22:00 +17°C° 0 mm 5 mps 725 mmHg 62%
    23:00 +16°C° 0 mm 5 mps 724 mmHg 63%
    Show more